Regional Weather Roundup
Issued by NWS

Home | Current Version | Previous Version | Graphics & Text | Print | Product List | Glossary Off
Versions: 1 2 3 4 5 6 7 8 9 10 11 12 13 14 15 16 17 18 19 20 21 22 23 24 25 26 27 28 29 30 31 32 33 34 35 36 37 38 39 40 41 42 43 44 45 46 47 48 49 50

000
ASUS43 KMKX 310720
RWRWI

WISCONSIN REGIONAL WEATHER ROUNDUP
NATIONAL WEATHER SERVICE MILWAUKEE/SULLIVAN WI
100 AM CST SAT JAN 31 2015

NOTE: "FAIR" INDICATES FEW OR NO CLOUDS BELOW 12,000 FEET WITH NO
SIGNIFICANT WEATHER AND/OR OBSTRUCTIONS TO VISIBILITY.

WIZ001-002-006>008-014>016-023>028-310800-
NORTHWEST WISCONSIN

CITY           SKY/WX    TMP DP  RH WIND       PRES   REMARKS
SUPERIOR ARPT  CLOUDY    19  11  72 CALM      30.14F
ASHLAND        CLOUDY    20  12  71 SW6       30.13F WCI  12
HAYWARD        CLOUDY    19  11  70 CALM      30.11F
SIREN          CLOUDY    22  15  75 CALM      30.12F
CUMBERLAND     CLOUDY    18  10  73 SE3       30.11F
RICE LAKE      CLOUDY    18  10  71 SE5       30.15F WCI  11
CHETEK         CLOUDY    17  10  71 CALM      30.14F
LADYSMITH      CLOUDY    19   9  65 S3        30.15F
EAU CLAIRE     CLOUDY    20   9  62 CALM      30.15F
MENOMONIE      CLOUDY    20  13  75 SE5       30.15F WCI  14
NEW RICHMOND   CLOUDY    24  19  80 S6        30.12F WCI  17
OSCEOLA        CLOUDY    25  20  81 S5        30.16S WCI  19
$$

WIZ003>005-009-010-017-018-310800-
NORTH CENTRAL WISCONSIN

CITY           SKY/WX    TMP DP  RH WIND       PRES   REMARKS
MANITOWISH WTR CLOUDY    15   7  70 SW3       30.09F
ARBOR VITAE    CLOUDY    17   9  70 S3        30.10F
WOODRUFF       CLOUDY    17   9  70 S3        30.10F
RHINELANDER    CLOUDY    15   6  67 SW5       30.11F WCI   8
EAGLE RIVER    CLOUDY    15   5  64 CALM      30.10F
LAND O LAKES   FLURRIES  16   8  70 SW3       30.09F
PHILLIPS       CLOUDY    18   9  66 SW5       30.10F WCI  11
TOMAHAWK       CLOUDY    15   7  70 CALM      30.13F
MEDFORD        CLOUDY    17   8  66 S7        30.13F WCI   8
MERRILL        CLOUDY    16   7  69 CALM      30.15F
$$

WIZ029-030-035-036-043>047-310800-
CENTRAL WISCONSIN

CITY           SKY/WX    TMP DP  RH WIND       PRES   REMARKS
WAUSAU         CLOUDY    17   6  62 S5        30.15F WCI  10
MOSINEE        CLOUDY    18  10  73 S8        30.17F WCI   7
MARSHFIELD     CLOUDY    16   6  65 S5        30.16F WCI   9
STEVENS POINT  CLOUDY    15   7  72 S5        30.19F WCI   7
WAUPACA        CLOUDY    19  10  68 S3        30.22F
WAUTOMA        MOCLDY    11   7  84 CALM      30.23F
WISC RAPIDS    MOCLDY    14   5  67 S3        30.21F
CAMP DOUGLAS   PTCLDY    23  13  65 SW6       30.19F WCI  16
$$

WIZ011>013-019>022-031-037>040-048>050-310800-
NORTHEAST WISCONSIN

CITY           SKY/WX    TMP DP  RH WIND       PRES   REMARKS
ANTIGO         CLOUDY    14   7  73 SW3       30.14F
SHAWANO        CLOUDY    19   9  63 CALM      30.22F
OCONTO         CLOUDY    19  11  69 MISG      30.23F
STURGEON BAY   CLOUDY    19  10  68 SW5       30.25F WCI  13
GREEN BAY      CLOUDY    20  12  71 SW5       30.24F WCI  13
MANITOWOC      CLOUDY    21  13  71 SW6       30.26F WCI  13
APPLETON       CLOUDY    19  10  68 SW7       30.23F WCI  10
CLINTONVILLE   CLOUDY    18   9  68 S3        30.22F
OSHKOSH        CLOUDY    17   9  70 S8        30.23F WCI   7
$$

WIZ032>034-041-042-053>061-310800-
SOUTHWEST WISCONSIN

CITY           SKY/WX    TMP DP  RH WIND       PRES   REMARKS
LA CROSSE      CLEAR     24  13  62 S12       30.20F WCI  13
SPARTA         CLOUDY    25  13  59 S3        30.20F
VIROQUA        MOCLDY    22  14  72 S10       30.19F WCI  11
BOSCOBEL       CLEAR     21  13  71 SW5       30.25F WCI  15
PRAIRIE DU CHI CLEAR     23  13  65 CALM      30.25F
PLATTEVILLE    FAIR      20  16  85 S8        30.25F WCI  10
$$

WIZ056-057-062-063-064-067-068-310800-
SOUTH CENTRAL WISCONSIN

CITY           SKY/WX    TMP DP  RH WIND       PRES   REMARKS
REEDSBURG      PTCLDY    22  14  70 SW7       30.22F WCI  14
BARABOO/DELLS  CLOUDY    24  14  68 SW9       30.22S WCI  14
LONE ROCK      CLEAR     21  13  71 SW3       30.26F
MINERAL POINT  PTCLDY    23  18  80 S9        30.23F WCI  13
MADISON        CLOUDY    23  15  71 S7        30.24F WCI  15
MIDDLETON      CLOUDY    26  16  64 SW8       30.25F WCI  18
WATERTOWN      CLOUDY    20  15  82 S5        30.26F WCI  14
MONROE         CLOUDY    23  19  86 SW13      30.25F WCI  11
JANESVILLE     CLOUDY    25  18  74 SW8       30.28F WCI  16
$$

WIZ051-052-058>065-066-070>072-310800-
SOUTHEAST WISCONSIN

CITY           SKY/WX    TMP DP  RH WIND       PRES   REMARKS
MILWAUKEE      PTCLDY    19  11  70 SW6       30.29F WCI  11
WAUKESHA       CLOUDY    18  12  79 S5        30.28F WCI  11
MILWAUKEE/TIMM CLOUDY    21  12  68 SW5       30.29F WCI  15
RACINE         CLEAR     17  11  77 SW6       30.31F WCI   9
BURLINGTON     CLOUDY    16  13  88 CALM      30.29S
KENOSHA        MOCLDY    20  14  77 SW5       30.30F WCI  13
FOND DU LAC    CLOUDY    18  10  71 S7        30.23F WCI   9
SHEBOYGAN      CLOUDY    20  11  68 SW8       30.25F WCI  10
WEST BEND      MOCLDY    19  12  73 SW3       30.26F
JUNEAU         CLOUDY    19  13  80 S8        30.26F WCI   8
$$

LSZ147-162-310800-
LAKE SUPERIOR

STATION/POSITION TIME  TEMP    WIND        PRES    WAVE
                       AIR SEA DIR/SP/G            HT/PER
                 (UTC) (F)     (DEG/KT/KT) (MB)    (FT/S)
DEVILS ISLAND    0700   21     240/ 14/ 16 1021.2F
PORT WING        0600   20     210/  5/  8 1021.3
SAXON HARBOR     0600   21     200/  3/  9 1021.0F
$$

LMZ867-665-643>646-310800-
LAKE MICHIGAN

STATION/POSITION TIME  TEMP    WIND        PRES    WAVE
                       AIR SEA DIR/SP/G            HT/PER
                 (UTC) (F)     (DEG/KT/KT) (MB)    (FT/S)
NORTHPORT PIER   0617   20      CALM  /  7 1024.4F
SISTER BAY       0613   20     210/  8/  9   N/A
KEWAUNEE LAKESHO 0600   21     200/  7/  9 1023.7F
SHEBOYGAN LAKESH 0700   22     210/  9/ 10 1026.1F
PORT WASHINGTON  0640   20     230/  3/  6 1026.4F
MILWAUKEE LAKESH 0700   22     230/  8/ 11   N/A
KENOSHA   LAKESH 0700   20     200/  6/  7 1026.1F
$$

TC  - TEMPERATURE IN CELSIUS
VSB - VISIBILITY IN STATUTE MILES
WCI - WIND CHILL INDEX
HX  - HEAT INDEX




USA.gov is the U.S. government's official web portal to all federal, state and local government web resources and services.